| time (UTC) | temp F | wind direction | speed knots | gust knots | rain 1hr in | rain 24hr in | rain mn in | humidity % | barometer mb |
| 20260505204714 | 91 | 227 | 2.6 | 9.6 | 0.00 | 0.00 | 0.00 | 56 | 1004.2 |
| 20260505204212 | 91 | 227 | 1.7 | 7.0 | 0.00 | 0.00 | 0.00 | 57 | 1004.3 |
| 20260505203709 | 89 | 225 | 4.3 | 8.7 | 0.00 | 0.00 | 0.00 | 60 | 1004.5 |
| 20260505203206 | 89 | 203 | 6.1 | 9.6 | 0.00 | 0.00 | 0.00 | 60 | 1004.3 |
| 20260505202702 | 90 | 184 | 4.3 | 12.2 | 0.00 | 0.00 | 0.00 | 59 | 1004.6 |
| 20260505202158 | 89 | 262 | 4.3 | 8.7 | 0.00 | 0.00 | 0.00 | 61 | 1004.6 |
| 20260505201654 | 90 | 201 | 4.3 | 13.0 | 0.00 | 0.00 | 0.00 | 60 | 1004.7 |
| 20260505201153 | 90 | 206 | 3.5 | 7.8 | 0.00 | 0.00 | 0.00 | 60 | 1004.6 |
| 20260505200651 | 89 | 218 | 2.6 | 8.7 | 0.00 | 0.00 | 0.00 | 63 | 1004.7 |
| 20260505200147 | 89 | 192 | 1.7 | 7.0 | 0.00 | 0.00 | 0.00 | 63 | 1004.7 |
| 20260505195643 | 89 | 240 | 4.3 | 7.8 | 0.00 | 0.00 | 0.00 | 61 | 1004.5 |
| 20260505195140 | 88 | 205 | 6.1 | 9.6 | 0.00 | 0.00 | 0.00 | 63 | 1004.7 |
| 20260505194638 | 89 | 213 | 4.3 | 13.9 | 0.00 | 0.00 | 0.00 | 63 | 1004.6 |
| 20260505194134 | 87 | 225 | 2.6 | 11.3 | 0.00 | 0.00 | 0.00 | 65 | 1004.7 |
| 20260505193630 | 87 | 230 | 5.2 | 10.4 | 0.00 | 0.00 | 0.00 | 64 | 1004.6 |
| 20260505193127 | 88 | 193 | 4.3 | 7.8 | 0.00 | 0.00 | 0.00 | 64 | 1004.5 |
| 20260505192626 | 87 | 234 | 6.1 | 10.4 | 0.00 | 0.00 | 0.00 | 64 | 1004.7 |
| 20260505192123 | 87 | 216 | 7.0 | 7.0 | 0.00 | 0.00 | 0.00 | 64 | 1004.6 |
| 20260505191622 | 87 | 180 | 4.3 | 7.8 | 0.00 | 0.00 | 0.00 | 66 | 1004.8 |
| 20260505191119 | 86 | 207 | 4.3 | 8.7 | 0.00 | 0.00 | 0.00 | 65 | 1004.8 |
| 20260505190615 | 86 | 201 | 6.1 | 10.4 | 0.00 | 0.00 | 0.00 | 65 | 1004.8 |
| 20260505190110 | 86 | 246 | 3.5 | 13.0 | 0.00 | 0.00 | 0.00 | 66 | 1005.0 |
| 20260505185607 | 85 | 262 | 3.5 | 7.8 | 0.00 | 0.00 | 0.00 | 67 | 1004.8 |
| 20260505185103 | 84 | 233 | 8.7 | 12.2 | 0.00 | 0.00 | 0.00 | 68 | 1004.8 |
| 20260505184600 | 84 | 215 | 1.7 | 10.4 | 0.00 | 0.00 | 0.00 | 68 | 1004.9 |
| 20260505184057 | 84 | 192 | 5.2 | 9.6 | 0.00 | 0.00 | 0.00 | 68 | 1005.0 |
| 20260505183553 | 84 | 196 | 5.2 | 13.0 | 0.00 | 0.00 | 0.00 | 68 | 1005.0 |
| 20260505183051 | 84 | 207 | 7.0 | 13.0 | 0.00 | 0.00 | 0.00 | 68 | 1004.9 |
| 20260505182547 | 84 | 215 | 2.6 | 12.2 | 0.00 | 0.00 | 0.00 | 68 | 1004.8 |
| 20260505182044 | 84 | 224 | 4.3 | 10.4 | 0.00 | 0.00 | 0.00 | 68 | 1004.9 |
| 20260505181541 | 84 | 196 | 3.5 | 14.8 | 0.00 | 0.00 | 0.00 | 68 | 1004.8 |
| 20260505181038 | 84 | 203 | 3.5 | 12.2 | 0.00 | 0.00 | 0.00 | 67 | 1004.9 |
| 20260505180533 | 86 | 179 | 7.0 | 7.8 | 0.00 | 0.00 | 0.00 | 66 | 1004.9 |
| 20260505180032 | 85 | 224 | 4.3 | 10.4 | 0.00 | 0.00 | 0.00 | 67 | 1005.1 |
| 20260505175532 | 85 | 268 | 2.6 | 8.7 | 0.00 | 0.00 | 0.00 | 68 | 1005.1 |
| 20260505175029 | 84 | 231 | 4.3 | 11.3 | 0.00 | 0.00 | 0.00 | 68 | 1004.9 |
| 20260505174526 | 84 | 200 | 10.4 | 11.3 | 0.00 | 0.00 | 0.00 | 68 | 1004.8 |
| 20260505174022 | 84 | 201 | 4.3 | 9.6 | 0.00 | 0.00 | 0.00 | 69 | 1005.0 |
| 20260505173519 | 84 | 216 | 3.5 | 9.6 | 0.00 | 0.00 | 0.00 | 68 | 1005.0 |
| 20260505173016 | 84 | 213 | 4.3 | 9.6 | 0.00 | 0.00 | 0.00 | 69 | 1005.1 |
| 20260505172514 | 84 | 208 | 12.2 | 12.2 | 0.00 | 0.00 | 0.00 | 68 | 1005.2 |
| 20260505172009 | 83 | 265 | 5.2 | 11.3 | 0.00 | 0.00 | 0.00 | 69 | 1005.4 |
| 20260505171505 | 83 | 207 | 4.3 | 11.3 | 0.00 | 0.00 | 0.00 | 70 | 1005.2 |
| 20260505171002 | 83 | 237 | 4.3 | 7.8 | 0.00 | 0.00 | 0.00 | 70 | 1005.0 |
| 20260505170458 | 82 | 207 | 2.6 | 9.6 | 0.00 | 0.00 | 0.00 | 70 | 1005.2 |
| 20260505165954 | 83 | 243 | 4.3 | 11.3 | 0.00 | 0.00 | 0.00 | 69 | 1005.3 |
| 20260505165450 | 82 | 209 | 4.3 | 9.6 | 0.00 | 0.00 | 0.00 | 71 | 1005.1 |
| 20260505164945 | 82 | 222 | 4.3 | 11.3 | 0.00 | 0.00 | 0.00 | 71 | 1005.2 |
| 20260505164442 | 81 | 222 | 6.1 | 11.3 | 0.00 | 0.00 | 0.00 | 71 | 1005.4 |
| 20260505163940 | 81 | 185 | 7.8 | 14.8 | 0.00 | 0.00 | 0.00 | 71 | 1005.2 |
| 20260505163439 | 81 | 247 | 2.6 | 11.3 | 0.00 | 0.00 | 0.00 | 71 | 1005.1 |
| 20260505162938 | 81 | 181 | 5.2 | 13.0 | 0.00 | 0.00 | 0.00 | 71 | 1005.0 |
| 20260505162433 | 81 | 192 | 3.5 | 15.6 | 0.00 | 0.00 | 0.00 | 72 | 1005.0 |
| 20260505161930 | 81 | 182 | 5.2 | 17.4 | 0.00 | 0.00 | 0.00 | 71 | 1004.8 |
| 20260505161426 | 81 | 226 | 4.3 | 12.2 | 0.00 | 0.00 | 0.00 | 72 | 1005.1 |
| 20260505160924 | 81 | 181 | 3.5 | 8.7 | 0.00 | 0.00 | 0.00 | 72 | 1004.7 |
| 20260505160422 | 81 | 242 | 3.5 | 10.4 | 0.00 | 0.00 | 0.00 | 72 | 1004.7 |
| 20260505152858 | 80 | 197 | 2.6 | 9.6 | 0.00 | 0.00 | 0.00 | 76 | 1004.7 |
| 20260505152350 | 79 | 177 | 4.3 | 11.3 | 0.00 | 0.00 | 0.00 | 76 | 1004.8 |
| 20260505151849 | 78 | 186 | 4.3 | 10.4 | 0.00 | 0.00 | 0.00 | 78 | 1005.1 |
| 20260505151346 | 78 | 228 | 3.5 | 19.1 | 0.00 | 0.00 | 0.00 | 79 | 1005.0 |
| 20260505150843 | 77 | 212 | 1.7 | 10.4 | 0.00 | 0.00 | 0.00 | 80 | 1005.0 |
| 20260505150340 | 77 | 160 | 6.1 | 9.6 | 0.00 | 0.00 | 0.00 | 79 | 1004.9 |
| 20260505140304 | 73 | 256 | 2.6 | 7.0 | 0.00 | 0.00 | 0.00 | 85 | 1005.2 |
| 20260505130147 | 72 | 259 | 1.7 | 7.8 | 0.00 | 0.00 | 0.00 | 87 | 1004.6 |
| 20260505124637 | 71 | 238 | 1.7 | 5.2 | 0.00 | 0.00 | 0.00 | 88 | 1004.7 |
| 20260505124133 | 71 | 174 | 3.5 | 8.7 | 0.00 | 0.00 | 0.00 | 88 | 1004.6 |
| 20260505123629 | 71 | 198 | 2.6 | 7.0 | 0.00 | 0.00 | 0.00 | 88 | 1004.1 |
| 20260505123126 | 71 | 186 | 1.7 | 8.7 | 0.00 | 0.00 | 0.00 | 88 | 1004.1 |
| 20260505122623 | 71 | 254 | 1.7 | 7.8 | 0.00 | 0.00 | 0.00 | 88 | 1003.9 |
| 20260505122120 | 71 | 183 | 2.6 | 7.8 | 0.00 | 0.00 | 0.00 | 88 | 1004.5 |
| 20260505121617 | 71 | 201 | 2.6 | 7.0 | 0.00 | 0.00 | 0.00 | 88 | 1004.4 |
| 20260505121114 | 71 | 247 | 5.2 | 11.3 | 0.00 | 0.00 | 0.00 | 88 | 1004.3 |
| 20260505120610 | 71 | 172 | 3.5 | 8.7 | 0.00 | 0.00 | 0.00 | 88 | 1004.1 |
| 20260505120106 | 71 | 225 | 6.1 | 9.6 | 0.00 | 0.00 | 0.00 | 88 | 1004.2 |
| 20260505115600 | 71 | 75 | 1.7 | 7.0 | 0.00 | 0.00 | 0.00 | 88 | 1004.1 |
| 20260505115058 | 71 | 201 | 3.5 | 10.4 | 0.00 | 0.00 | 0.00 | 88 | 1004.2 |
| 20260505114555 | 71 | 253 | 2.6 | 7.0 | 0.00 | 0.00 | 0.00 | 88 | 1004.2 |
| 20260505114051 | 71 | 220 | 2.6 | 7.8 | 0.00 | 0.00 | 0.00 | 88 | 1004.3 |
| 20260505113547 | 71 | 207 | 4.3 | 8.7 | 0.00 | 0.00 | 0.00 | 87 | 1004.0 |
| 20260505113044 | 71 | 199 | 3.5 | 7.8 | 0.00 | 0.00 | 0.00 | 88 | 1003.7 |
| 20260505112540 | 71 | 209 | 4.3 | 6.1 | 0.00 | 0.00 | 0.00 | 88 | 1003.8 |
| 20260505112038 | 71 | 198 | 3.5 | 12.2 | 0.00 | 0.00 | 0.00 | 88 | 1004.0 |
| 20260505111532 | 71 | 215 | 7.8 | 9.6 | 0.00 | 0.00 | 0.00 | 88 | 1003.8 |
| 20260505111029 | 71 | 231 | 3.5 | 7.8 | 0.00 | 0.00 | 0.00 | 88 | 1003.7 |
| 20260505110525 | 71 | 175 | 1.7 | 7.8 | 0.00 | 0.00 | 0.00 | 88 | 1003.5 |
| 20260505101958 | 71 | 218 | 5.2 | 8.7 | 0.00 | 0.00 | 0.00 | 87 | 1003.9 |
| 20260505101455 | 71 | 230 | 1.7 | 9.6 | 0.00 | 0.00 | 0.00 | 87 | 1003.9 |
| 20260505100952 | 71 | 150 | 3.5 | 9.6 | 0.00 | 0.00 | 0.00 | 87 | 1004.0 |
| 20260505100449 | 71 | 243 | 3.5 | 8.7 | 0.00 | 0.00 | 0.00 | 87 | 1004.1 |
| 20260505095945 | 71 | 208 | 2.6 | 11.3 | 0.00 | 0.00 | 0.00 | 87 | 1003.9 |
| 20260505095442 | 71 | 223 | 1.7 | 10.4 | 0.00 | 0.00 | 0.00 | 87 | 1003.9 |
| 20260505094938 | 71 | 264 | 3.5 | 7.8 | 0.00 | 0.00 | 0.00 | 87 | 1004.1 |
| 20260505094435 | 71 | 222 | 3.5 | 8.7 | 0.00 | 0.00 | 0.00 | 87 | 1004.1 |
| 20260505093931 | 71 | 227 | 2.6 | 14.8 | 0.00 | 0.00 | 0.00 | 87 | 1004.4 |
| 20260505093428 | 71 | 161 | 4.3 | 13.9 | 0.00 | 0.00 | 0.00 | 87 | 1004.2 |
| 20260505092925 | 71 | 140 | 2.6 | 9.6 | 0.00 | 0.00 | 0.00 | 87 | 1004.3 |
| 20260505092423 | 71 | 95 | 1.7 | 9.6 | 0.00 | 0.00 | 0.00 | 87 | 1004.5 |
| 20260505091920 | 71 | 253 | 1.7 | 11.3 | 0.00 | 0.00 | 0.00 | 87 | 1004.3 |
| 20260505091418 | 71 | 271 | 1.7 | 9.6 | 0.00 | 0.00 | 0.00 | 87 | 1004.5 |
| 20260505090916 | 71 | 193 | 4.3 | 12.2 | 0.00 | 0.00 | 0.00 | 87 | 1004.2 |
| 20260505090414 | 71 | 227 | 4.3 | 9.6 | 0.00 | 0.00 | 0.00 | 87 | 1004.3 |
| 20260505085911 | 71 | 187 | 5.2 | 13.0 | 0.00 | 0.00 | 0.00 | 87 | 1004.4 |
| 20260505085409 | 71 | 150 | 0.9 | 12.2 | 0.00 | 0.00 | 0.00 | 87 | 1004.5 |
| 20260505084906 | 71 | 227 | 1.7 | 9.6 | 0.00 | 0.00 | 0.00 | 87 | 1004.4 |
| 20260505084405 | 71 | 191 | 6.1 | 9.6 | 0.00 | 0.00 | 0.00 | 87 | 1004.4 |
| 20260505083902 | 71 | 203 | 5.2 | 9.6 | 0.00 | 0.00 | 0.00 | 87 | 1004.3 |
| 20260505083359 | 71 | 205 | 2.6 | 10.4 | 0.00 | 0.00 | 0.00 | 87 | 1004.2 |
| 20260505082855 | 71 | 190 | 4.3 | 11.3 | 0.00 | 0.00 | 0.00 | 87 | 1004.2 |
| 20260505082351 | 71 | 255 | 3.5 | 7.8 | 0.00 | 0.00 | 0.00 | 87 | 1004.5 |
| 20260505081848 | 71 | 153 | 1.7 | 8.7 | 0.00 | 0.00 | 0.00 | 87 | 1004.4 |
| 20260505081345 | 71 | 233 | 2.6 | 9.6 | 0.00 | 0.00 | 0.00 | 87 | 1004.4 |
| 20260505080842 | 71 | 232 | 3.5 | 10.4 | 0.00 | 0.00 | 0.00 | 87 | 1004.4 |
| 20260505080338 | 71 | 173 | 6.1 | 11.3 | 0.00 | 0.00 | 0.00 | 87 | 1004.4 |
| 20260505075833 | 71 | 157 | 2.6 | 9.6 | 0.00 | 0.00 | 0.00 | 87 | 1004.6 |
| 20260505075330 | 71 | 221 | 4.3 | 7.0 | 0.00 | 0.00 | 0.00 | 86 | 1004.7 |
| 20260505074828 | 71 | 181 | 1.7 | 11.3 | 0.00 | 0.00 | 0.00 | 86 | 1004.7 |
| 20260505074325 | 71 | 174 | 1.7 | 9.6 | 0.00 | 0.00 | 0.00 | 86 | 1004.8 |
| 20260505073822 | 71 | 192 | 5.2 | 9.6 | 0.00 | 0.00 | 0.00 | 86 | 1005.1 |
| 20260505073320 | 71 | 275 | 1.7 | 9.6 | 0.00 | 0.00 | 0.00 | 85 | 1005.1 |
| 20260505072817 | 71 | 218 | 2.6 | 8.7 | 0.00 | 0.00 | 0.00 | 85 | 1005.3 |
| 20260505072313 | 71 | 256 | 3.5 | 11.3 | 0.00 | 0.00 | 0.00 | 85 | 1005.3 |
| 20260505071809 | 71 | 183 | 2.6 | 7.0 | 0.00 | 0.00 | 0.00 | 85 | 1005.4 |
| 20260505071306 | 71 | 195 | 0.0 | 7.0 | 0.00 | 0.00 | 0.00 | 84 | 1005.3 |
| 20260505070804 | 72 | 209 | 3.5 | 7.8 | 0.00 | 0.00 | 0.00 | 84 | 1005.3 |
| 20260505070300 | 72 | 192 | 6.1 | 9.6 | 0.00 | 0.00 | 0.00 | 84 | 1005.0 |
| 20260505065755 | 72 | 262 | 3.5 | 7.0 | 0.00 | 0.00 | 0.00 | 84 | 1005.5 |
| 20260505065252 | 72 | 186 | 2.6 | 8.7 | 0.00 | 0.00 | 0.00 | 84 | 1005.4 |
| 20260505064749 | 72 | 170 | 3.5 | 15.6 | 0.00 | 0.00 | 0.00 | 83 | 1005.4 |
| 20260505064246 | 72 | 217 | 3.5 | 8.7 | 0.00 | 0.00 | 0.00 | 83 | 1005.6 |
| 20260505063744 | 72 | 170 | 3.5 | 9.6 | 0.00 | 0.00 | 0.00 | 83 | 1005.6 |
| 20260505063240 | 72 | 190 | 5.2 | 7.8 | 0.00 | 0.00 | 0.00 | 83 | 1005.6 |
| 20260505062736 | 72 | 207 | 4.3 | 11.3 | 0.00 | 0.00 | 0.00 | 82 | 1005.5 |
| 20260505062234 | 72 | 217 | 2.6 | 10.4 | 0.00 | 0.00 | 0.00 | 82 | 1005.3 |
| 20260505061731 | 72 | 198 | 3.5 | 11.3 | 0.00 | 0.00 | 0.00 | 82 | 1005.3 |
| 20260505061229 | 72 | 254 | 2.6 | 7.8 | 0.00 | 0.00 | 0.00 | 82 | 1005.7 |
| 20260505060726 | 72 | 114 | 5.2 | 10.4 | 0.00 | 0.00 | 0.00 | 82 | 1005.6 |
| 20260505060223 | 72 | 133 | 4.3 | 7.8 | 0.00 | 0.00 | 0.00 | 81 | 1005.6 |
| 20260505055718 | 72 | 262 | 3.5 | 12.2 | 0.00 | 0.00 | 0.00 | 81 | 1005.8 |
| 20260505055215 | 72 | 170 | 10.4 | 10.4 | 0.00 | 0.00 | 0.00 | 81 | 1005.6 |
| 20260505054712 | 72 | 204 | 4.3 | 11.3 | 0.00 | 0.00 | 0.00 | 81 | 1005.7 |
| 20260505054210 | 72 | 235 | 2.6 | 7.0 | 0.00 | 0.00 | 0.00 | 81 | 1005.9 |
| 20260505053708 | 72 | 200 | 2.6 | 8.7 | 0.00 | 0.00 | 0.00 | 81 | 1005.8 |
| 20260505053204 | 72 | 234 | 4.3 | 9.6 | 0.00 | 0.00 | 0.00 | 80 | 1005.8 |
| 20260505052701 | 72 | 168 | 1.7 | 8.7 | 0.00 | 0.00 | 0.00 | 80 | 1005.9 |
| 20260505052158 | 72 | 202 | 1.7 | 12.2 | 0.00 | 0.00 | 0.00 | 80 | 1005.6 |
| 20260505051655 | 72 | 159 | 4.3 | 7.8 | 0.00 | 0.00 | 0.00 | 80 | 1005.9 |
| 20260505051154 | 72 | 243 | 1.7 | 13.0 | 0.00 | 0.00 | 0.00 | 79 | 1005.9 |
| 20260505050651 | 72 | 210 | 5.2 | 8.7 | 0.00 | 0.00 | 0.00 | 79 | 1006.1 |
| 20260505050149 | 72 | 172 | 4.3 | 13.0 | 0.00 | 0.00 | 0.00 | 79 | 1006.1 |
| 20260505041619 | 72 | 183 | 3.5 | 8.7 | 0.00 | 0.00 | 0.00 | 78 | 1006.4 |
| 20260505041116 | 73 | 255 | 1.7 | 6.1 | 0.00 | 0.00 | 0.00 | 77 | 1006.5 |
| 20260505040613 | 73 | 244 | 3.5 | 8.7 | 0.00 | 0.00 | 0.00 | 77 | 1006.3 |
| 20260505040110 | 73 | 214 | 1.7 | 7.8 | 0.00 | 0.00 | 0.00 | 77 | 1006.3 |
| 20260505035606 | 73 | 189 | 2.6 | 7.0 | 0.00 | 0.00 | 0.00 | 77 | 1006.4 |
| 20260505035103 | 73 | 235 | 2.6 | 7.0 | 0.00 | 0.00 | 0.00 | 77 | 1006.4 |
| 20260505034559 | 73 | 150 | 4.3 | 7.8 | 0.00 | 0.00 | 0.00 | 76 | 1006.1 |
| 20260505034056 | 73 | 213 | 2.6 | 7.0 | 0.00 | 0.00 | 0.00 | 75 | 1006.2 |
| 20260505033553 | 73 | 219 | 4.3 | 6.1 | 0.00 | 0.00 | 0.00 | 75 | 1006.4 |
| 20260505033052 | 73 | 253 | 2.6 | 8.7 | 0.00 | 0.00 | 0.00 | 75 | 1006.4 |
| 20260505032549 | 73 | 223 | 3.5 | 7.0 | 0.00 | 0.00 | 0.00 | 75 | 1006.5 |
| 20260505032045 | 73 | 264 | 1.7 | 7.8 | 0.00 | 0.00 | 0.00 | 75 | 1006.5 |
| 20260505031543 | 73 | 161 | 1.7 | 7.8 | 0.00 | 0.00 | 0.00 | 75 | 1006.4 |
| 20260505031039 | 73 | 185 | 5.2 | 7.0 | 0.00 | 0.00 | 0.00 | 75 | 1006.2 |
| 20260505030536 | 74 | 181 | 4.3 | 8.7 | 0.00 | 0.00 | 0.00 | 74 | 1006.3 |
| 20260505030032 | 74 | 212 | 5.2 | 9.6 | 0.00 | 0.00 | 0.00 | 74 | 1006.3 |
| 20260505025528 | 74 | 218 | 2.6 | 6.1 | 0.00 | 0.00 | 0.00 | 74 | 1006.4 |
| 20260505025027 | 74 | 213 | 4.3 | 7.0 | 0.00 | 0.00 | 0.00 | 74 | 1006.4 |
| 20260505024524 | 74 | 143 | 1.7 | 8.7 | 0.00 | 0.00 | 0.00 | 73 | 1006.3 |
| 20260505024021 | 74 | 195 | 1.7 | 5.2 | 0.00 | 0.00 | 0.00 | 73 | 1006.5 |
| 20260505023518 | 74 | 218 | 2.6 | 7.8 | 0.00 | 0.00 | 0.00 | 73 | 1006.4 |
| 20260505023015 | 74 | 128 | 7.0 | 7.0 | 0.00 | 0.00 | 0.00 | 73 | 1006.1 |
| 20260505022513 | 74 | 197 | 0.9 | 6.1 | 0.00 | 0.00 | 0.00 | 72 | 1006.2 |
| 20260505022010 | 75 | 254 | 2.6 | 7.0 | 0.00 | 0.00 | 0.00 | 72 | 1006.3 |
| 20260505021506 | 75 | 202 | 3.5 | 7.8 | 0.00 | 0.00 | 0.00 | 71 | 1006.1 |
| 20260505021003 | 75 | 214 | 3.5 | 8.7 | 0.00 | 0.00 | 0.00 | 71 | 1006.1 |
| 20260505020457 | 75 | 192 | 3.5 | 7.0 | 0.00 | 0.00 | 0.00 | 71 | 1006.2 |
| 20260505015954 | 75 | 140 | 2.6 | 9.6 | 0.00 | 0.00 | 0.00 | 71 | 1006.0 |
| 20260505015452 | 75 | 148 | 3.5 | 9.6 | 0.00 | 0.00 | 0.00 | 70 | 1006.4 |
| 20260505014949 | 75 | 248 | 2.6 | 11.3 | 0.00 | 0.00 | 0.00 | 70 | 1006.1 |
| 20260505014446 | 75 | 224 | 3.5 | 10.4 | 0.00 | 0.00 | 0.00 | 70 | 1006.3 |
| 20260505013943 | 75 | 210 | 1.7 | 5.2 | 0.00 | 0.00 | 0.00 | 70 | 1006.5 |
| 20260505013440 | 76 | 227 | 4.3 | 7.0 | 0.00 | 0.00 | 0.00 | 69 | 1006.2 |
| 20260505012937 | 76 | 212 | 2.6 | 5.2 | 0.00 | 0.00 | 0.00 | 69 | 1006.4 |
| 20260505012435 | 76 | 233 | 2.6 | 8.7 | 0.00 | 0.00 | 0.00 | 69 | 1006.4 |
| 20260505011931 | 76 | 263 | 1.7 | 7.8 | 0.00 | 0.00 | 0.00 | 68 | 1006.2 |
| 20260505011428 | 76 | 223 | 8.7 | 12.2 | 0.00 | 0.00 | 0.00 | 68 | 1006.3 |
| 20260505010925 | 76 | 202 | 1.7 | 6.1 | 0.00 | 0.00 | 0.00 | 68 | 1006.1 |
| 20260505010420 | 76 | 226 | 2.6 | 6.1 | 0.00 | 0.00 | 0.00 | 67 | 1006.1 |
| 20260505005916 | 77 | 189 | 2.6 | 11.3 | 0.00 | 0.00 | 0.00 | 67 | 1006.2 |
| 20260505005414 | 77 | 253 | 2.6 | 13.9 | 0.00 | 0.00 | 0.00 | 67 | 1005.8 |
| 20260505004911 | 77 | 166 | 5.2 | 10.4 | 0.00 | 0.00 | 0.00 | 66 | 1006.3 |
| 20260505004407 | 77 | 178 | 1.7 | 7.8 | 0.00 | 0.00 | 0.00 | 66 | 1006.1 |
| 20260505003904 | 77 | 193 | 3.5 | 13.0 | 0.00 | 0.00 | 0.00 | 66 | 1006.3 |
| 20260505003401 | 77 | 182 | 3.5 | 10.4 | 0.00 | 0.00 | 0.00 | 65 | 1006.4 |
| 20260505002858 | 78 | 234 | 2.6 | 7.8 | 0.00 | 0.00 | 0.00 | 65 | 1006.5 |
| 20260505002354 | 78 | 210 | 2.6 | 7.8 | 0.00 | 0.00 | 0.00 | 64 | 1006.0 |
| 20260505001853 | 78 | 213 | 2.6 | 7.8 | 0.00 | 0.00 | 0.00 | 64 | 1006.3 |
| 20260505001349 | 78 | 205 | 3.5 | 13.9 | 0.00 | 0.00 | 0.00 | 63 | 1006.7 |
| 20260505000847 | 79 | 202 | 5.2 | 13.9 | 0.00 | 0.00 | 0.00 | 63 | 1006.4 |
| 20260505000344 | 79 | 259 | 3.5 | 11.3 | 0.00 | 0.00 | 0.00 | 63 | 1006.2 |
| 20260504235841 | 79 | 200 | 4.3 | 11.3 | 0.00 | 0.00 | 0.00 | 62 | 1006.2 |
| 20260504235338 | 79 | 204 | 4.3 | 17.4 | 0.00 | 0.00 | 0.00 | 62 | 1006.4 |
| 20260504234834 | 79 | 236 | 6.1 | 12.2 | 0.00 | 0.00 | 0.00 | 62 | 1006.4 |
| 20260504234332 | 79 | 201 | 5.2 | 13.0 | 0.00 | 0.00 | 0.00 | 62 | 1006.7 |
| 20260504233829 | 79 | 239 | 4.3 | 16.5 | 0.00 | 0.00 | 0.00 | 62 | 1006.3 |
| 20260504233324 | 79 | 188 | 2.6 | 12.2 | 0.00 | 0.00 | 0.00 | 62 | 1006.5 |
| 20260504232821 | 80 | 238 | 4.3 | 11.3 | 0.00 | 0.00 | 0.00 | 62 | 1006.7 |
| 20260504232319 | 80 | 220 | 4.3 | 11.3 | 0.00 | 0.00 | 0.00 | 61 | 1006.4 |
| 20260504231815 | 81 | 180 | 5.2 | 9.6 | 0.00 | 0.00 | 0.00 | 60 | 1006.9 |
| 20260504231312 | 81 | 190 | 5.2 | 12.2 | 0.00 | 0.00 | 0.00 | 59 | 1006.9 |
| 20260504230808 | 82 | 242 | 6.1 | 16.5 | 0.00 | 0.00 | 0.00 | 58 | 1006.8 |
| 20260504230306 | 82 | 201 | 5.2 | 15.6 | 0.00 | 0.00 | 0.00 | 57 | 1006.9 |
| 20260504225805 | 82 | 202 | 5.2 | 15.6 | 0.00 | 0.00 | 0.00 | 57 | 1006.9 |
| 20260504225301 | 82 | 233 | 2.6 | 13.0 | 0.00 | 0.00 | 0.00 | 58 | 1006.9 |
| 20260504224758 | 82 | 262 | 3.5 | 12.2 | 0.00 | 0.00 | 0.00 | 57 | 1006.9 |
| 20260504224255 | 83 | 213 | 3.5 | 10.4 | 0.00 | 0.00 | 0.00 | 56 | 1007.1 |
| 20260504223751 | 83 | 213 | 2.6 | 13.0 | 0.00 | 0.00 | 0.00 | 57 | 1007.0 |
| 20260504223247 | 82 | 198 | 4.3 | 11.3 | 0.00 | 0.00 | 0.00 | 56 | 1007.0 |
| 20260504222744 | 82 | 214 | 4.3 | 11.3 | 0.00 | 0.00 | 0.00 | 57 | 1006.9 |
| 20260504222241 | 82 | 252 | 4.3 | 13.0 | 0.00 | 0.00 | 0.00 | 57 | 1006.8 |
| 20260504221739 | 82 | 260 | 4.3 | 14.8 | 0.00 | 0.00 | 0.00 | 57 | 1006.9 |
| 20260504221235 | 82 | 231 | 3.5 | 20.0 | 0.00 | 0.00 | 0.00 | 56 | 1006.8 |
| 20260504220732 | 81 | 165 | 1.7 | 10.4 | 0.00 | 0.00 | 0.00 | 58 | 1007.2 |
| 20260504220229 | 81 | 206 | 3.5 | 13.9 | 0.00 | 0.00 | 0.00 | 58 | 1007.1 |
| 20260504215726 | 82 | 263 | 4.3 | 20.9 | 0.00 | 0.00 | 0.00 | 57 | 1007.2 |
| 20260504215223 | 82 | 262 | 6.1 | 11.3 | 0.00 | 0.00 | 0.00 | 57 | 1007.4 |
| 20260504214719 | 82 | 245 | 6.1 | 13.0 | 0.00 | 0.00 | 0.00 | 56 | 1007.4 |
| 20260504214215 | 82 | 222 | 4.3 | 8.7 | 0.00 | 0.00 | 0.00 | 56 | 1007.4 |
| 20260504213712 | 83 | 301 | 13.0 | 13.0 | 0.00 | 0.00 | 0.00 | 56 | 1007.5 |
| 20260504213209 | 83 | 234 | 4.3 | 10.4 | 0.00 | 0.00 | 0.00 | 56 | 1007.2 |
| 20260504212706 | 83 | 157 | 2.6 | 13.9 | 0.00 | 0.00 | 0.00 | 55 | 1007.6 |
| 20260504212203 | 83 | 214 | 2.6 | 13.9 | 0.00 | 0.00 | 0.00 | 55 | 1007.7 |
| 20260504211700 | 84 | 213 | 5.2 | 25.2 | 0.00 | 0.00 | 0.00 | 54 | 1007.8 |
| 20260504211155 | 83 | 224 | 4.3 | 10.4 | 0.00 | 0.00 | 0.00 | 54 | 1008.0 |
| 20260504210654 | 82 | 280 | 3.5 | 16.5 | 0.00 | 0.00 | 0.00 | 55 | 1007.7 |
| 20260504210150 | 83 | 204 | 4.3 | 13.0 | 0.00 | 0.00 | 0.00 | 53 | 1007.8 |
| 20260504205647 | 84 | 225 | 1.7 | 10.4 | 0.00 | 0.00 | 0.00 | 53 | 1008.1 |
| 20260504205144 | 84 | 203 | 3.5 | 5.2 | 0.00 | 0.00 | 0.00 | 53 | 1008.0 |